Location: Unspecified
(0.0000°N, 0.0000°E)
Time: 06:35:12
(UTC+00:00)

Hubble Space Telescope - Visible Passes

Search period start: 12 August 2020 00:00
Search period end: 22 August 2020 00:00
Orbit: 536 x 540 km, 28.5° (Epoch: 11 August)

Date Brightness Start Highest point End Pass type
(mag) Time Alt. Az. Time Alt. Az. Time Alt. Az.
17 Aug 3.0 19:57:39 10° SW 19:58:53 18° SW 19:58:53 18° SW visible
18 Aug 1.8 19:46:52 10° WSW 19:49:35 40° SW 19:49:35 40° SW visible
19 Aug 0.8 19:36:10 10° WSW 19:40:17 71° NNW 19:40:20 71° NNW visible
20 Aug 1.5 19:25:35 10° WSW 19:29:35 49° NNW 19:31:06 32° NNE visible
21 Aug 2.2 19:15:07 10° W 19:18:53 34° NNW 19:21:52 14° NNE visible
